contact:dominique.lefevre@mio.osupytheas.fr, maurice.libes@osupytheas.fr, didier.mallarino@osupytheas.fr
Project:EMSO http://www.emso-fr.org/EMSO-France
Depth: 2436.0 m
Title:EMSO Ligure Ouest : Data MII capteur MICROCAT
DateTime_Computer,Latitude,Longitude,Temperature,Conductivity,Pressure,DateTime_Instrument
DateTime_Computer,Latitude,Longitude,degC,S m-1,dbar,DateTime_Instrument
2022-04-15T00:01:04Z,42.805,6.029,13.3000,4.60035,2470.32,2022-4-15T02:02:43Z
2022-04-15T00:04:08Z,42.805,6.029,13.3001,4.60036,2470.32,2022-4-15T02:05:46Z
2022-04-15T00:07:11Z,42.805,6.029,13.3001,4.60035,2470.31,2022-4-15T02:08:49Z
2022-04-15T00:10:14Z,42.805,6.029,13.3000,4.60035,2470.32,2022-4-15T02:11:52Z
2022-04-15T00:13:17Z,42.805,6.029,13.3000,4.60036,2470.32,2022-4-15T02:14:55Z
2022-04-15T00:16:20Z,42.805,6.029,13.3001,4.60035,2470.32,2022-4-15T02:17:58Z
2022-04-15T00:19:23Z,42.805,6.029,13.3004,4.60036,2470.334,2022-4-15T02:21:02Z
2022-04-15T00:22:26Z,42.805,6.029,13.3000,4.60036,2470.32,2022-4-15T02:24:05Z
2022-04-15T00:25:29Z,42.805,6.029,13.3000,4.60036,2470.357,2022-4-15T02:27:08Z
2022-04-15T00:28:33Z,42.805,6.029,13.3001,4.60035,2470.32,2022-4-15T02:30:11Z
2022-04-15T00:31:36Z,42.805,6.029,13.2998,4.60035,2470.32,2022-4-15T02:33:14Z
2022-04-15T00:34:39Z,42.805,6.029,13.3000,4.60035,2470.32,2022-4-15T02:36:17Z
2022-04-15T00:37:42Z,42.805,6.029,13.3000,4.60035,2470.334,2022-4-15T02:39:20Z
2022-04-15T00:40:45Z,42.805,6.029,13.2997,4.60035,2470.32,2022-4-15T02:42:23Z
2022-04-15T00:43:48Z,42.805,6.029,13.2999,4.60035,2470.32,2022-4-15T02:45:27Z
2022-04-15T00:46:51Z,42.805,6.029,13.2999,4.60034,2470.31,2022-4-15T02:48:30Z
2022-04-15T00:49:54Z,42.805,6.029,13.2998,4.60035,2470.343,2022-4-15T02:51:33Z
2022-04-15T00:52:57Z,42.805,6.029,13.2998,4.60035,2470.32,2022-4-15T02:54:36Z
2022-04-15T00:56:01Z,42.805,6.029,13.2998,4.60034,2470.32,2022-4-15T02:57:39Z
2022-04-15T00:59:04Z,42.805,6.029,13.3000,4.60033,2470.343,2022-4-15T03:00:42Z
2022-04-15T01:02:07Z,42.805,6.029,13.3000,4.60034,2470.32,2022-4-15T03:03:45Z
2022-04-15T01:05:10Z,42.805,6.029,13.3002,4.60034,2470.357,2022-4-15T03:06:48Z
2022-04-15T01:08:13Z,42.805,6.029,13.3003,4.60035,2470.334,2022-4-15T03:09:52Z
2022-04-15T01:11:16Z,42.805,6.029,13.2998,4.60034,2470.343,2022-4-15T03:12:55Z
2022-04-15T01:14:19Z,42.805,6.029,13.3000,4.60035,2470.343,2022-4-15T03:15:58Z
2022-04-15T01:17:22Z,42.805,6.029,13.2997,4.60035,2470.297,2022-4-15T03:19:01Z
2022-04-15T01:20:26Z,42.805,6.029,13.2998,4.60036,2470.32,2022-4-15T03:22:04Z
2022-04-15T01:23:29Z,42.805,6.029,13.3000,4.60034,2470.357,2022-4-15T03:25:07Z
2022-04-15T01:26:32Z,42.805,6.029,13.2999,4.60036,2470.32,2022-4-15T03:28:10Z
2022-04-15T01:29:35Z,42.805,6.029,13.2998,4.60034,2470.32,2022-4-15T03:31:13Z
2022-04-15T01:32:38Z,42.805,6.029,13.3000,4.60034,2470.343,2022-4-15T03:34:16Z
2022-04-15T01:35:41Z,42.805,6.029,13.3004,4.60035,2470.32,2022-4-15T03:37:20Z
2022-04-15T01:38:44Z,42.805,6.029,13.2997,4.60036,2470.343,2022-4-15T03:40:23Z
2022-04-15T01:41:47Z,42.805,6.029,13.2998,4.60036,2470.343,2022-4-15T03:43:26Z
2022-04-15T01:44:51Z,42.805,6.029,13.3000,4.60036,2470.343,2022-4-15T03:46:29Z
2022-04-15T01:47:54Z,42.805,6.029,13.2998,4.60036,2470.357,2022-4-15T03:49:32Z
2022-04-15T01:50:57Z,42.805,6.029,13.2998,4.60035,2470.343,2022-4-15T03:52:35Z
2022-04-15T01:54:00Z,42.805,6.029,13.2999,4.60036,2470.357,2022-4-15T03:55:38Z
2022-04-15T01:57:03Z,42.805,6.029,13.3004,4.60036,2470.32,2022-4-15T03:58:41Z
2022-04-15T02:00:06Z,42.805,6.029,13.2998,4.60035,2470.343,2022-4-15T04:01:45Z
2022-04-15T02:03:09Z,42.805,6.029,13.3000,4.60034,2470.343,2022-4-15T04:04:48Z
2022-04-15T02:06:12Z,42.805,6.029,13.2999,4.60037,2470.343,2022-4-15T04:07:51Z
2022-04-15T02:09:15Z,42.805,6.029,13.2998,4.60036,2470.353,2022-4-15T04:10:54Z
2022-04-15T02:12:19Z,42.805,6.029,13.3000,4.60036,2470.357,2022-4-15T04:13:57Z
2022-04-15T02:15:22Z,42.805,6.029,13.3001,4.60035,2470.366,2022-4-15T04:17:00Z
2022-04-15T02:18:25Z,42.805,6.029,13.3000,4.60035,2470.39,2022-4-15T04:20:03Z
2022-04-15T02:21:28Z,42.805,6.029,13.3004,4.60035,2470.366,2022-4-15T04:23:06Z
2022-04-15T02:24:31Z,42.805,6.029,13.2996,4.60035,2470.38,2022-4-15T04:26:10Z
2022-04-15T02:27:34Z,42.805,6.029,13.3003,4.60035,2470.366,2022-4-15T04:29:13Z
2022-04-15T02:30:37Z,42.805,6.029,13.2998,4.60035,2470.366,2022-4-15T04:32:16Z
2022-04-15T02:33:40Z,42.805,6.029,13.2999,4.60035,2470.39,2022-4-15T04:35:19Z
2022-04-15T02:36:44Z,42.805,6.029,13.3001,4.60036,2470.38,2022-4-15T04:38:22Z
2022-04-15T02:39:47Z,42.805,6.029,13.2999,4.60035,2470.343,2022-4-15T04:41:25Z
2022-04-15T02:42:50Z,42.805,6.029,13.2998,4.60036,2470.39,2022-4-15T04:44:28Z
2022-04-15T02:45:53Z,42.805,6.029,13.2998,4.60035,2470.39,2022-4-15T04:47:31Z
2022-04-15T02:48:56Z,42.805,6.029,13.2998,4.60036,2470.404,2022-4-15T04:50:34Z
2022-04-15T02:51:59Z,42.805,6.029,13.2998,4.60035,2470.404,2022-4-15T04:53:38Z
2022-04-15T02:55:02Z,42.805,6.029,13.2999,4.60036,2470.39,2022-4-15T04:56:41Z
2022-04-15T02:58:05Z,42.805,6.029,13.2999,4.60036,2470.404,2022-4-15T04:59:44Z
2022-04-15T03:01:09Z,42.805,6.029,13.3000,4.60036,2470.413,2022-4-15T05:02:47Z
2022-04-15T03:04:12Z,42.805,6.029,13.3001,4.60036,2470.427,2022-4-15T05:05:50Z
2022-04-15T03:07:15Z,42.805,6.029,13.3000,4.60034,2470.437,2022-4-15T05:08:53Z
2022-04-15T03:10:18Z,42.805,6.029,13.2998,4.60036,2470.423,2022-4-15T05:11:56Z
2022-04-15T03:13:21Z,42.805,6.029,13.3001,4.60036,2470.413,2022-4-15T05:14:59Z
2022-04-15T03:16:24Z,42.805,6.029,13.2998,4.60036,2470.45,2022-4-15T05:18:03Z
2022-04-15T03:19:27Z,42.805,6.029,13.2998,4.60036,2470.427,2022-4-15T05:21:06Z
2022-04-15T03:22:30Z,42.805,6.029,13.2998,4.60035,2470.437,2022-4-15T05:24:09Z
2022-04-15T03:25:34Z,42.805,6.029,13.3004,4.60035,2470.45,2022-4-15T05:27:12Z
2022-04-15T03:28:37Z,42.805,6.029,13.3000,4.60035,2470.46,2022-4-15T05:30:15Z
2022-04-15T03:31:40Z,42.805,6.029,13.3002,4.60036,2470.45,2022-4-15T05:33:18Z
2022-04-15T03:34:43Z,42.805,6.029,13.2999,4.60035,2470.413,2022-4-15T05:36:21Z
2022-04-15T03:37:46Z,42.805,6.029,13.3002,4.60035,2470.45,2022-4-15T05:39:24Z
2022-04-15T03:40:49Z,42.805,6.029,13.3002,4.60036,2470.46,2022-4-15T05:42:28Z
2022-04-15T03:43:52Z,42.805,6.029,13.2998,4.60036,2470.46,2022-4-15T05:45:31Z
2022-04-15T03:46:55Z,42.805,6.029,13.2999,4.60036,2470.427,2022-4-15T05:48:34Z
2022-04-15T03:49:58Z,42.805,6.029,13.3000,4.60037,2470.474,2022-4-15T05:51:37Z
2022-04-15T03:53:02Z,42.805,6.029,13.2998,4.60035,2470.45,2022-4-15T05:54:40Z
2022-04-15T03:56:05Z,42.805,6.029,13.2996,4.60036,2470.46,2022-4-15T05:57:43Z
2022-04-15T03:59:08Z,42.805,6.029,13.2998,4.60036,2470.437,2022-4-15T06:00:46Z
2022-04-15T04:02:11Z,42.805,6.029,13.2998,4.60036,2470.437,2022-4-15T06:03:49Z
2022-04-15T04:05:14Z,42.805,6.029,13.3003,4.60036,2470.46,2022-4-15T06:06:53Z
2022-04-15T04:08:17Z,42.805,6.029,13.3000,4.60036,2470.483,2022-4-15T06:09:56Z
2022-04-15T04:11:20Z,42.805,6.029,13.3006,4.60036,2470.474,2022-4-15T06:12:59Z
2022-04-15T04:14:23Z,42.805,6.029,13.2999,4.60036,2470.483,2022-4-15T06:16:02Z
2022-04-15T04:17:27Z,42.805,6.029,13.2998,4.60036,2470.46,2022-4-15T06:19:05Z
2022-04-15T04:20:30Z,42.805,6.029,13.2997,4.60036,2470.497,2022-4-15T06:22:08Z
2022-04-15T04:23:33Z,42.805,6.029,13.2998,4.60037,2470.497,2022-4-15T06:25:11Z
2022-04-15T04:26:36Z,42.805,6.029,13.2998,4.60037,2470.474,2022-4-15T06:28:14Z
2022-04-15T04:29:39Z,42.805,6.029,13.3000,4.60038,2470.497,2022-4-15T06:31:17Z
2022-04-15T04:32:42Z,42.805,6.029,13.3003,4.60037,2470.52,2022-4-15T06:34:21Z
2022-04-15T04:35:45Z,42.805,6.029,13.3000,4.60036,2470.507,2022-4-15T06:37:24Z
2022-04-15T04:38:48Z,42.805,6.029,13.2998,4.60036,2470.507,2022-4-15T06:40:27Z
2022-04-15T04:41:52Z,42.805,6.029,13.2998,4.60036,2470.507,2022-4-15T06:43:30Z
2022-04-15T04:44:55Z,42.805,6.029,13.2998,4.60036,2470.483,2022-4-15T06:46:33Z
2022-04-15T04:47:58Z,42.805,6.029,13.2996,4.60037,2470.53,2022-4-15T06:49:36Z
2022-04-15T04:51:01Z,42.805,6.029,13.2996,4.60037,2470.497,2022-4-15T06:52:39Z
2022-04-15T04:54:04Z,42.805,6.029,13.3003,4.60036,2470.53,2022-4-15T06:55:42Z
2022-04-15T04:57:07Z,42.805,6.029,13.3001,4.60036,2470.497,2022-4-15T06:58:46Z
2022-04-15T05:00:10Z,42.805,6.029,13.3000,4.60039,2470.52,2022-4-15T07:01:49Z
2022-04-15T05:03:13Z,42.805,6.029,13.3001,4.60036,2470.544,2022-4-15T07:04:52Z
2022-04-15T05:06:17Z,42.805,6.029,13.3005,4.60037,2470.483,2022-4-15T07:07:55Z
2022-04-15T05:09:20Z,42.805,6.029,13.3001,4.60036,2470.46,2022-4-15T07:10:58Z
2022-04-15T05:12:23Z,42.805,6.029,13.2999,4.60037,2470.483,2022-4-15T07:14:01Z
2022-04-15T05:15:26Z,42.805,6.029,13.3003,4.60036,2470.483,2022-4-15T07:17:04Z
2022-04-15T05:18:29Z,42.805,6.029,13.2998,4.60037,2470.507,2022-4-15T07:20:07Z
2022-04-15T05:21:32Z,42.805,6.029,13.3004,4.60037,2470.483,2022-4-15T07:23:11Z
2022-04-15T05:24:35Z,42.805,6.029,13.2998,4.60036,2470.52,2022-4-15T07:26:14Z
2022-04-15T05:27:38Z,42.805,6.029,13.3001,4.60036,2470.46,2022-4-15T07:29:17Z
2022-04-15T05:30:41Z,42.805,6.029,13.3000,4.60037,2470.507,2022-4-15T07:32:20Z
2022-04-15T05:33:45Z,42.805,6.029,13.2998,4.60036,2470.507,2022-4-15T07:35:23Z
2022-04-15T05:36:48Z,42.805,6.029,13.3000,4.60036,2470.46,2022-4-15T07:38:26Z
2022-04-15T05:39:51Z,42.805,6.029,13.3004,4.60036,2470.497,2022-4-15T07:41:29Z
2022-04-15T05:42:54Z,42.805,6.029,13.3003,4.60038,2470.483,2022-4-15T07:44:32Z
2022-04-15T05:45:57Z,42.805,6.029,13.2998,4.60037,2470.507,2022-4-15T07:47:36Z
2022-04-15T05:49:00Z,42.805,6.029,13.3002,4.60039,2470.52,2022-4-15T07:50:39Z
2022-04-15T05:52:03Z,42.805,6.029,13.3004,4.60038,2470.507,2022-4-15T07:53:42Z
2022-04-15T05:55:06Z,42.805,6.029,13.3001,4.60037,2470.46,2022-4-15T07:56:45Z
2022-04-15T05:58:10Z,42.805,6.029,13.2999,4.60038,2470.46,2022-4-15T07:59:48Z
2022-04-15T06:01:13Z,42.805,6.029,13.3001,4.60037,2470.497,2022-4-15T08:02:51Z
2022-04-15T06:04:16Z,42.805,6.029,13.3000,4.60036,2470.474,2022-4-15T08:05:54Z
2022-04-15T06:07:19Z,42.805,6.029,13.3000,4.60036,2470.46,2022-4-15T08:08:57Z
2022-04-15T06:10:22Z,42.805,6.029,13.3000,4.60037,2470.437,2022-4-15T08:12:00Z
2022-04-15T06:13:25Z,42.805,6.029,13.3004,4.60038,2470.497,2022-4-15T08:15:04Z
2022-04-15T06:16:28Z,42.805,6.029,13.3004,4.60037,2470.483,2022-4-15T08:18:07Z
2022-04-15T06:19:31Z,42.805,6.029,13.3002,4.60037,2470.47,2022-4-15T08:21:10Z
2022-04-15T06:22:35Z,42.805,6.029,13.2998,4.60037,2470.497,2022-4-15T08:24:13Z
2022-04-15T06:25:38Z,42.805,6.029,13.3003,4.60037,2470.483,2022-4-15T08:27:16Z
2022-04-15T06:28:41Z,42.805,6.029,13.3000,4.60037,2470.52,2022-4-15T08:30:19Z
2022-04-15T06:31:44Z,42.805,6.029,13.3000,4.60038,2470.483,2022-4-15T08:33:22Z
2022-04-15T06:34:47Z,42.805,6.029,13.3001,4.60037,2470.46,2022-4-15T08:36:25Z
2022-04-15T06:37:50Z,42.805,6.029,13.3000,4.60037,2470.45,2022-4-15T08:39:29Z
2022-04-15T06:40:53Z,42.805,6.029,13.2999,4.60038,2470.46,2022-4-15T08:42:32Z
2022-04-15T06:43:56Z,42.805,6.029,13.3003,4.60037,2470.483,2022-4-15T08:45:35Z
2022-04-15T06:47:00Z,42.805,6.029,13.2998,4.60039,2470.45,2022-4-15T08:48:38Z
2022-04-15T06:50:03Z,42.805,6.029,13.2999,4.60038,2470.483,2022-4-15T08:51:41Z
2022-04-15T06:53:06Z,42.805,6.029,13.3004,4.60037,2470.46,2022-4-15T08:54:44Z
2022-04-15T06:56:09Z,42.805,6.029,13.3000,4.60038,2470.46,2022-4-15T08:57:47Z
2022-04-15T06:59:12Z,42.805,6.029,13.3000,4.60038,2470.483,2022-4-15T09:00:50Z
2022-04-15T07:02:15Z,42.805,6.029,13.3003,4.60039,2470.46,2022-4-15T09:03:54Z
2022-04-15T07:05:18Z,42.805,6.029,13.3002,4.60038,2470.413,2022-4-15T09:06:57Z
2022-04-15T07:08:21Z,42.805,6.029,13.3001,4.60038,2470.46,2022-4-15T09:10:00Z
2022-04-15T07:11:24Z,42.805,6.029,13.3005,4.60038,2470.46,2022-4-15T09:13:03Z
2022-04-15T07:14:28Z,42.805,6.029,13.2998,4.60038,2470.46,2022-4-15T09:16:06Z
2022-04-15T07:17:31Z,42.805,6.029,13.3000,4.60039,2470.413,2022-4-15T09:19:09Z
2022-04-15T07:20:34Z,42.805,6.029,13.2998,4.60038,2470.437,2022-4-15T09:22:12Z
2022-04-15T07:23:37Z,42.805,6.029,13.3001,4.60039,2470.45,2022-4-15T09:25:15Z
2022-04-15T07:26:40Z,42.805,6.029,13.3000,4.60039,2470.474,2022-4-15T09:28:19Z
2022-04-15T07:29:43Z,42.805,6.029,13.2999,4.60038,2470.413,2022-4-15T09:31:22Z
2022-04-15T07:32:46Z,42.805,6.029,13.3004,4.60039,2470.437,2022-4-15T09:34:25Z
2022-04-15T07:35:49Z,42.805,6.029,13.3000,4.60038,2470.437,2022-4-15T09:37:28Z
2022-04-15T07:38:53Z,42.805,6.029,13.2999,4.60041,2470.45,2022-4-15T09:40:31Z
2022-04-15T07:41:56Z,42.805,6.029,13.3000,4.60041,2470.45,2022-4-15T09:43:34Z
2022-04-15T07:44:59Z,42.805,6.029,13.3002,4.60038,2470.437,2022-4-15T09:46:37Z
2022-04-15T07:48:02Z,42.805,6.029,13.3004,4.60038,2470.427,2022-4-15T09:49:40Z
2022-04-15T07:51:05Z,42.805,6.029,13.3004,4.60037,2470.39,2022-4-15T09:52:43Z
2022-04-15T07:54:08Z,42.805,6.029,13.3000,4.60038,2470.45,2022-4-15T09:55:47Z
2022-04-15T07:57:11Z,42.805,6.029,13.3004,4.60038,2470.437,2022-4-15T09:58:50Z
2022-04-15T08:00:14Z,42.805,6.029,13.2997,4.60039,2470.413,2022-4-15T10:01:53Z
2022-04-15T08:03:18Z,42.805,6.029,13.3000,4.60039,2470.413,2022-4-15T10:04:56Z
2022-04-15T08:06:21Z,42.805,6.029,13.3002,4.60038,2470.39,2022-4-15T10:07:59Z
2022-04-15T08:09:24Z,42.805,6.029,13.2999,4.60038,2470.45,2022-4-15T10:11:02Z
2022-04-15T08:12:27Z,42.805,6.029,13.3000,4.60039,2470.413,2022-4-15T10:14:05Z
2022-04-15T08:15:30Z,42.805,6.029,13.3002,4.60036,2470.404,2022-4-15T10:17:08Z
2022-04-15T08:18:33Z,42.805,6.029,13.3000,4.60039,2470.404,2022-4-15T10:20:12Z
2022-04-15T08:21:36Z,42.805,6.029,13.2998,4.60037,2470.39,2022-4-15T10:23:15Z
2022-04-15T08:24:39Z,42.805,6.029,13.3000,4.60039,2470.39,2022-4-15T10:26:18Z
2022-04-15T08:27:43Z,42.805,6.029,13.3002,4.60039,2470.427,2022-4-15T10:29:21Z
2022-04-15T08:30:46Z,42.805,6.029,13.3000,4.60040,2470.399,2022-4-15T10:32:24Z
2022-04-15T08:33:49Z,42.805,6.029,13.3002,4.60037,2470.427,2022-4-15T10:35:27Z
2022-04-15T08:36:52Z,42.805,6.029,13.3000,4.60037,2470.413,2022-4-15T10:38:30Z
2022-04-15T08:39:55Z,42.805,6.029,13.3000,4.60041,2470.413,2022-4-15T10:41:33Z
2022-04-15T08:42:58Z,42.805,6.029,13.3000,4.60038,2470.427,2022-4-15T10:44:37Z
2022-04-15T08:46:01Z,42.805,6.029,13.3003,4.60038,2470.39,2022-4-15T10:47:40Z
2022-04-15T08:49:04Z,42.805,6.029,13.3006,4.60037,2470.413,2022-4-15T10:50:43Z
2022-04-15T08:52:08Z,42.805,6.029,13.3001,4.60038,2470.366,2022-4-15T10:53:46Z
2022-04-15T08:55:11Z,42.805,6.029,13.3001,4.60037,2470.357,2022-4-15T10:56:49Z
2022-04-15T08:58:14Z,42.805,6.029,13.3001,4.60039,2470.404,2022-4-15T10:59:52Z
2022-04-15T09:01:17Z,42.805,6.029,13.3002,4.60039,2470.366,2022-4-15T11:02:55Z
2022-04-15T09:04:20Z,42.805,6.029,13.3002,4.60039,2470.353,2022-4-15T11:05:58Z
2022-04-15T09:07:23Z,42.805,6.029,13.3003,4.60038,2470.366,2022-4-15T11:09:02Z
2022-04-15T09:10:26Z,42.805,6.029,13.3004,4.60040,2470.366,2022-4-15T11:12:05Z
2022-04-15T09:13:29Z,42.805,6.029,13.3002,4.60038,2470.366,2022-4-15T11:15:08Z
2022-04-15T09:16:33Z,42.805,6.029,13.3004,4.60039,2470.38,2022-4-15T11:18:11Z
2022-04-15T09:19:36Z,42.805,6.029,13.3003,4.60037,2470.343,2022-4-15T11:21:14Z
2022-04-15T09:22:39Z,42.805,6.029,13.2999,4.60038,2470.343,2022-4-15T11:24:17Z
2022-04-15T09:25:42Z,42.805,6.029,13.3000,4.60039,2470.357,2022-4-15T11:27:20Z
2022-04-15T09:28:45Z,42.805,6.029,13.3000,4.60039,2470.32,2022-4-15T11:30:23Z
2022-04-15T09:31:48Z,42.805,6.029,13.2998,4.60037,2470.357,2022-4-15T11:33:27Z
2022-04-15T09:34:51Z,42.805,6.029,13.2998,4.60037,2470.38,2022-4-15T11:36:30Z
2022-04-15T09:37:54Z,42.805,6.029,13.2998,4.60039,2470.32,2022-4-15T11:39:33Z
2022-04-15T09:40:58Z,42.805,6.029,13.3000,4.60036,2470.343,2022-4-15T11:42:36Z
2022-04-15T09:44:01Z,42.805,6.029,13.3001,4.60037,2470.343,2022-4-15T11:45:39Z
2022-04-15T09:47:04Z,42.805,6.029,13.3000,4.60038,2470.366,2022-4-15T11:48:42Z
2022-04-15T09:50:07Z,42.805,6.029,13.3001,4.60036,2470.32,2022-4-15T11:51:45Z
2022-04-15T09:53:10Z,42.805,6.029,13.3004,4.60037,2470.334,2022-4-15T11:54:48Z
2022-04-15T09:56:13Z,42.805,6.029,13.3001,4.60039,2470.357,2022-4-15T11:57:52Z
2022-04-15T09:59:16Z,42.805,6.029,13.3000,4.60036,2470.32,2022-4-15T12:00:55Z
2022-04-15T10:02:19Z,42.805,6.029,13.2998,4.60035,2470.32,2022-4-15T12:03:58Z
2022-04-15T10:05:23Z,42.805,6.029,13.2998,4.60036,2470.31,2022-4-15T12:07:01Z
2022-04-15T10:08:26Z,42.805,6.029,13.3001,4.60039,2470.273,2022-4-15T12:10:04Z
2022-04-15T10:11:29Z,42.805,6.029,13.3000,4.60037,2470.273,2022-4-15T12:13:07Z
2022-04-15T10:14:32Z,42.805,6.029,13.3000,4.60037,2470.273,2022-4-15T12:16:10Z
2022-04-15T10:17:35Z,42.805,6.029,13.3003,4.60039,2470.25,2022-4-15T12:19:13Z
2022-04-15T10:20:38Z,42.805,6.029,13.3003,4.60036,2470.287,2022-4-15T12:22:17Z
2022-04-15T10:23:41Z,42.805,6.029,13.3000,4.60037,2470.287,2022-4-15T12:25:20Z
2022-04-15T10:26:44Z,42.805,6.029,13.3000,4.60037,2470.25,2022-4-15T12:28:23Z
2022-04-15T10:29:48Z,42.805,6.029,13.2999,4.60037,2470.264,2022-4-15T12:31:26Z
2022-04-15T10:32:51Z,42.805,6.029,13.3000,4.60039,2470.264,2022-4-15T12:34:29Z
2022-04-15T10:35:54Z,42.805,6.029,13.3002,4.60037,2470.264,2022-4-15T12:37:32Z
2022-04-15T10:38:57Z,42.805,6.029,13.2999,4.60038,2470.25,2022-4-15T12:40:35Z
2022-04-15T10:42:00Z,42.805,6.029,13.3001,4.60038,2470.273,2022-4-15T12:43:38Z
2022-04-15T10:45:03Z,42.805,6.029,13.3002,4.60039,2470.227,2022-4-15T12:46:42Z
2022-04-15T10:48:06Z,42.805,6.029,13.3000,4.60039,2470.25,2022-4-15T12:49:45Z
2022-04-15T10:51:09Z,42.805,6.029,13.3006,4.60039,2470.25,2022-4-15T12:52:48Z
2022-04-15T10:54:13Z,42.805,6.029,13.3002,4.60038,2470.203,2022-4-15T12:55:51Z
2022-04-15T10:57:16Z,42.805,6.029,13.3001,4.60038,2470.217,2022-4-15T12:58:54Z
2022-04-15T11:00:19Z,42.805,6.029,13.3000,4.60037,2470.203,2022-4-15T13:01:57Z
2022-04-15T11:03:22Z,42.805,6.029,13.2998,4.60036,2470.227,2022-4-15T13:05:00Z
2022-04-15T11:06:25Z,42.805,6.029,13.3004,4.60036,2470.227,2022-4-15T13:08:03Z
2022-04-15T11:09:28Z,42.805,6.029,13.3001,4.60039,2470.227,2022-4-15T13:11:07Z
2022-04-15T11:12:31Z,42.805,6.029,13.3000,4.60036,2470.18,2022-4-15T13:14:10Z
2022-04-15T11:15:34Z,42.805,6.029,13.3003,4.60036,2470.203,2022-4-15T13:17:13Z
2022-04-15T11:18:38Z,42.805,6.029,13.3000,4.60039,2470.217,2022-4-15T13:20:16Z
2022-04-15T11:21:41Z,42.805,6.029,13.3002,4.60038,2470.18,2022-4-15T13:23:19Z
2022-04-15T11:24:44Z,42.805,6.029,13.3000,4.60036,2470.18,2022-4-15T13:26:22Z
2022-04-15T11:27:47Z,42.805,6.029,13.3002,4.60040,2470.217,2022-4-15T13:29:25Z
2022-04-15T11:30:50Z,42.805,6.029,13.3000,4.60036,2470.217,2022-4-15T13:32:28Z
2022-04-15T11:33:53Z,42.805,6.029,13.3000,4.60038,2470.227,2022-4-15T13:35:32Z
2022-04-15T11:36:56Z,42.805,6.029,13.2997,4.60037,2470.18,2022-4-15T13:38:35Z
2022-04-15T11:39:59Z,42.805,6.029,13.3000,4.60038,2470.18,2022-4-15T13:41:38Z
2022-04-15T11:43:03Z,42.805,6.029,13.3004,4.60038,2470.217,2022-4-15T13:44:41Z
2022-04-15T11:46:06Z,42.805,6.029,13.3002,4.60037,2470.156,2022-4-15T13:47:44Z
2022-04-15T11:49:09Z,42.805,6.029,13.2998,4.60041,2470.18,2022-4-15T13:50:47Z
2022-04-15T11:52:12Z,42.805,6.029,13.3003,4.60038,2470.171,2022-4-15T13:53:50Z
2022-04-15T11:55:15Z,42.805,6.029,13.3000,4.60037,2470.156,2022-4-15T13:56:53Z
2022-04-15T11:58:18Z,42.805,6.029,13.3005,4.60039,2470.171,2022-4-15T13:59:57Z
2022-04-15T12:01:21Z,42.805,6.029,13.3001,4.60038,2470.156,2022-4-15T14:03:00Z
2022-04-15T12:04:24Z,42.805,6.029,13.3004,4.60036,2470.18,2022-4-15T14:06:03Z
2022-04-15T12:07:28Z,42.805,6.029,13.3004,4.60039,2470.156,2022-4-15T14:09:06Z
2022-04-15T12:10:31Z,42.805,6.029,13.3000,4.60040,2470.171,2022-4-15T14:12:09Z
2022-04-15T12:13:34Z,42.805,6.029,13.2999,4.60038,2470.147,2022-4-15T14:15:12Z
2022-04-15T12:16:37Z,42.805,6.029,13.3002,4.60039,2470.147,2022-4-15T14:18:15Z
2022-04-15T12:19:40Z,42.805,6.029,13.3000,4.60037,2470.133,2022-4-15T14:21:18Z
2022-04-15T12:22:43Z,42.805,6.029,13.3003,4.60039,2470.133,2022-4-15T14:24:22Z
2022-04-15T12:25:46Z,42.805,6.029,13.3004,4.60037,2470.156,2022-4-15T14:27:25Z
2022-04-15T12:28:49Z,42.805,6.029,13.3000,4.60040,2470.133,2022-4-15T14:30:28Z
2022-04-15T12:31:53Z,42.805,6.029,13.3001,4.60036,2470.156,2022-4-15T14:33:31Z
2022-04-15T12:34:56Z,42.805,6.029,13.3001,4.60039,2470.133,2022-4-15T14:36:34Z
2022-04-15T12:37:59Z,42.805,6.029,13.3000,4.60036,2470.133,2022-4-15T14:39:37Z
2022-04-15T12:41:02Z,42.805,6.029,13.3000,4.60036,2470.11,2022-4-15T14:42:40Z
2022-04-15T12:44:05Z,42.805,6.029,13.3003,4.60036,2470.124,2022-4-15T14:45:43Z
2022-04-15T12:47:08Z,42.805,6.029,13.3004,4.60037,2470.124,2022-4-15T14:48:47Z
2022-04-15T12:50:11Z,42.805,6.029,13.3000,4.60037,2470.133,2022-4-15T14:51:50Z
2022-04-15T12:53:14Z,42.805,6.029,13.3001,4.60037,2470.11,2022-4-15T14:54:53Z
2022-04-15T12:56:18Z,42.805,6.029,13.3000,4.60038,2470.119,2022-4-15T14:57:56Z
2022-04-15T12:59:21Z,42.805,6.029,13.2997,4.60038,2470.147,2022-4-15T15:00:59Z
2022-04-15T13:02:24Z,42.805,6.029,13.3002,4.60037,2470.133,2022-4-15T15:04:02Z
2022-04-15T13:05:27Z,42.805,6.029,13.2999,4.60037,2470.11,2022-4-15T15:07:05Z
2022-04-15T13:08:30Z,42.805,6.029,13.2998,4.60039,2470.124,2022-4-15T15:10:08Z
2022-04-15T13:11:33Z,42.805,6.029,13.3004,4.60038,2470.124,2022-4-15T15:13:12Z
2022-04-15T13:14:36Z,42.805,6.029,13.3001,4.60038,2470.096,2022-4-15T15:16:15Z
2022-04-15T13:17:39Z,42.805,6.029,13.3000,4.60037,2470.087,2022-4-15T15:19:18Z
2022-04-15T13:20:43Z,42.805,6.029,13.3001,4.60039,2470.087,2022-4-15T15:22:21Z
2022-04-15T13:23:46Z,42.805,6.029,13.3004,4.60041,2470.133,2022-4-15T15:25:24Z
2022-04-15T13:26:49Z,42.805,6.029,13.3001,4.60039,2470.133,2022-4-15T15:28:27Z
2022-04-15T13:29:52Z,42.805,6.029,13.3003,4.60039,2470.087,2022-4-15T15:31:30Z
2022-04-15T13:32:55Z,42.805,6.029,13.3001,4.60036,2470.087,2022-4-15T15:34:33Z
2022-04-15T13:35:58Z,42.805,6.029,13.2998,4.60036,2470.11,2022-4-15T15:37:37Z
2022-04-15T13:39:01Z,42.805,6.029,13.3001,4.60036,2470.1,2022-4-15T15:40:40Z
2022-04-15T13:42:04Z,42.805,6.029,13.3001,4.60037,2470.124,2022-4-15T15:43:43Z
2022-04-15T13:45:08Z,42.805,6.029,13.3001,4.60038,2470.133,2022-4-15T15:46:46Z
2022-04-15T13:48:11Z,42.805,6.029,13.3000,4.60036,2470.147,2022-4-15T15:49:49Z
2022-04-15T13:51:14Z,42.805,6.029,13.2998,4.60039,2470.11,2022-4-15T15:52:52Z
2022-04-15T13:54:17Z,42.805,6.029,13.3000,4.60037,2470.11,2022-4-15T15:55:55Z
2022-04-15T13:57:20Z,42.805,6.029,13.3000,4.60036,2470.124,2022-4-15T15:58:58Z
2022-04-15T14:00:23Z,42.805,6.029,13.2998,4.60036,2470.11,2022-4-15T16:02:02Z
2022-04-15T14:03:26Z,42.805,6.029,13.3000,4.60037,2470.11,2022-4-15T16:05:05Z
2022-04-15T14:06:29Z,42.805,6.029,13.3000,4.60036,2470.087,2022-4-15T16:08:08Z
2022-04-15T14:09:33Z,42.805,6.029,13.3002,4.60038,2470.087,2022-4-15T16:11:11Z
2022-04-15T14:12:36Z,42.805,6.029,13.3000,4.60036,2470.124,2022-4-15T16:14:14Z
2022-04-15T14:15:39Z,42.805,6.029,13.2996,4.60036,2470.11,2022-4-15T16:17:17Z
2022-04-15T14:18:42Z,42.805,6.029,13.3000,4.60038,2470.11,2022-4-15T16:20:20Z
2022-04-15T14:21:45Z,42.805,6.029,13.3002,4.60037,2470.1,2022-4-15T16:23:23Z
2022-04-15T14:24:48Z,42.805,6.029,13.3000,4.60039,2470.087,2022-4-15T16:26:27Z
2022-04-15T14:27:51Z,42.805,6.029,13.3002,4.60037,2470.11,2022-4-15T16:29:30Z
2022-04-15T14:30:54Z,42.805,6.029,13.2998,4.60036,2470.147,2022-4-15T16:32:33Z
2022-04-15T14:33:58Z,42.805,6.029,13.3001,4.60038,2470.124,2022-4-15T16:35:36Z
2022-04-15T14:37:01Z,42.805,6.029,13.3002,4.60037,2470.096,2022-4-15T16:38:39Z
2022-04-15T14:40:04Z,42.805,6.029,13.3000,4.60038,2470.087,2022-4-15T16:41:42Z
2022-04-15T14:43:07Z,42.805,6.029,13.3001,4.60039,2470.133,2022-4-15T16:44:45Z
2022-04-15T14:46:10Z,42.805,6.029,13.2999,4.60038,2470.147,2022-4-15T16:47:48Z
2022-04-15T14:49:13Z,42.805,6.029,13.2999,4.60036,2470.156,2022-4-15T16:50:52Z
2022-04-15T14:52:16Z,42.805,6.029,13.3004,4.60038,2470.124,2022-4-15T16:53:55Z
2022-04-15T14:55:19Z,42.805,6.029,13.2996,4.60036,2470.133,2022-4-15T16:56:58Z
2022-04-15T14:58:23Z,42.805,6.029,13.3000,4.60038,2470.11,2022-4-15T17:00:01Z
2022-04-15T15:01:26Z,42.805,6.029,13.3000,4.60038,2470.124,2022-4-15T17:03:04Z
2022-04-15T15:04:29Z,42.805,6.029,13.2998,4.60036,2470.147,2022-4-15T17:06:07Z
2022-04-15T15:07:32Z,42.805,6.029,13.3000,4.60037,2470.124,2022-4-15T17:09:10Z
2022-04-15T15:10:35Z,42.805,6.029,13.3004,4.60039,2470.124,2022-4-15T17:12:13Z
2022-04-15T15:13:38Z,42.805,6.029,13.3000,4.60039,2470.156,2022-4-15T17:15:17Z